Regional Weather Roundup
Issued by NWS

Home | Current Version | Previous Version | Graphics & Text | Print | Product List | Glossary On
Versions: 1 2 3 4 5 6 7 8 9 10 11 12 13 14 15 16 17 18 19 20 21 22 23 24 25 26 27 28 29 30 31 32 33 34 35 36 37 38 39 40 41 42 43 44 45 46 47 48 49 50
000
ASUS43 KIND 031159
RWRIN

WEATHER ROUNDUP FOR INDIANA
NATIONAL WEATHER SERVICE INDIANAPOLIS IN
800 AM EDT THU SEP 03 2015

NOTE: "FAIR" INDICATES FEW OR NO CLOUDS BELOW 12,000 FEET WITH NO
SIGNIFICANT WEATHER AND/OR OBSTRUCTIONS TO VISIBILITY.

* - STATION DOES NOT REPORT WEATHER SUCH AS PRECIPITATION OR FOG.

+ - STATION NOT QUALITY CONTROLLED BY THE NATIONAL WEATHER SERVICE.
    USE DATA WITH CAUTION...ESPECIALLY DEWPOINT AND RELATIVE
    HUMIDITY OBSERVATIONS.

INZ001>003-010>013-019-020-031300-
NORTHWEST INDIANA

CITY           SKY/WX    TMP DP  RH WIND       PRES   REMARKS
GARY /AIRPORT/ CLEAR     73  66  78 S5        29.98R
KNOX *+        CLEAR     68  68 100 S6        29.99R
MONTICELLO +   CLEAR     69  69 100 S3        30.01R
6HR MIN TEMP:  69; 6HR MAX TEMP:  74;

RENSSELAER +   CLEAR     68  68 100 SW3       30.00S FOG

$$

LMZ046-743>745-031300-
SOUTHERN LAKE MICHIGAN

STATION/POSITION TIME  TEMP    WIND        PRES    WAVE
                       AIR SEA DIR/SP/G            HT
                 (UTC) (F)     (DEG/KT/KT) (MB)    (FT)
BURNS HARBOR     1100   74     180/  7/ 10 1015.2S
MICHIGAN CITY    1100   74     180/ 10/ 12   N/A
5NW MICH CITY    1100   74 73  220/  8/  8   N/A     1

$$

INZ004-005-014>016-021>024-031300-
NORTH CENTRAL INDIANA

CITY           SKY/WX    TMP DP  RH WIND       PRES   REMARKS
ELKHART        CLEAR     68  68 100 CALM      29.99S
GOSHEN         CLEAR     70  67  90 CALM      29.99S FOG
6HR MIN TEMP:  69; 6HR MAX TEMP:  73;

PERU/GRISSOM   CLEAR     69  66  91 SW2       30.02R
6HR MIN TEMP:  69; 6HR MAX TEMP:  71;

SOUTH BEND     CLEAR     70  68  93 SW5       29.99S FOG
6HR MIN TEMP:  70; 6HR MAX TEMP:  74;


$$

INZ006>009-017-018-025>027-031300-
NORTHEAST INDIANA

CITY           SKY/WX    TMP DP  RH WIND       PRES   REMARKS
ANGOLA *+      CLEAR     70  63  78 CALM      30.00S
FORT WAYNE     PTCLDY    70  67  90 SW6       30.02S FOG
6HR MIN TEMP:  68; 6HR MAX TEMP:  72;


$$

INZ028-029-035-036-043>045-051>053-031300-
WEST CENTRAL INDIANA

CITY           SKY/WX    TMP DP  RH WIND       PRES   REMARKS
CRAWFORDSVL +  CLEAR     64  64 100 CALM      30.04R FOG
6HR MIN TEMP:  62; 6HR MAX TEMP:  65;

GREENCASTLE +  CLEAR     63  61  94 CALM      30.05R FOG
LAFAYETTE      PTCLDY    68  67  96 CALM      30.02R
6HR MIN TEMP:  66; 6HR MAX TEMP:  70;

TERRE HAUTE    CLEAR     65  64  97 CALM      30.04R FOG
6HR MIN TEMP:  62; 6HR MAX TEMP:  67;


$$

INZ030>032-037>040-046>048-054>057-064-065-031300-
CENTRAL INDIANA

CITY           SKY/WX    TMP DP  RH WIND       PRES   REMARKS
FRANKFORT +    CLEAR    N/A N/A N/A CALM      30.05R FOG
GREENWOOD *+     N/A     66  64  94 CALM      30.05R VSB 1/4
INDIANAPOLIS   PTCLDY    70  67  90 S5        30.04R
6HR MIN TEMP:  69; 6HR MAX TEMP:  74;

-EAGLE CREEK   CLEAR     69  67  93 CALM      30.04R FOG
6HR MIN TEMP:  67; 6HR MAX TEMP:  72;

KOKOMO *+      CLEAR     68  63  83 CALM      30.03R
6HR MIN TEMP:  66; 6HR MAX TEMP:  72;

MT COMFORT *+  CLEAR     64 N/A N/A CALM      30.04S
SHELBYVILLE    FOG       66  63  90 CALM      30.04R VSB 1/4
6HR MIN TEMP:  65; 6HR MAX TEMP:  69;


$$

INZ033-034-041-042-049-050-058-059-031300-
EAST CENTRAL INDIANA

CITY           SKY/WX    TMP DP  RH WIND       PRES   REMARKS
MUNCIE         CLEAR     70  67  90 SW3       30.04R
6HR MIN TEMP:  66; 6HR MAX TEMP:  72;


$$

INZ060-061-067>069-081>083-085>088-031300-
SOUTHWEST INDIANA

CITY           SKY/WX    TMP DP  RH WIND       PRES   REMARKS
EVANSVILLE     CLEAR     70  68  93 CALM      30.04R FOG
6HR MIN TEMP:  68; 6HR MAX TEMP:  74;

HUNTINGBURG *+ MOCLDY    66  63  88 CALM      30.05R VSB 1/4
6HR MIN TEMP:  64; 6HR MAX TEMP:  70;


$$

INZ062-063-066-070>080-084-089>092-031300-
SOUTH CENTRAL AND SOUTHEAST INDIANA

CITY           SKY/WX    TMP DP  RH WIND       PRES   REMARKS
BLOOMINGTON    CLEAR     65  63  93 CALM      30.05R FOG
6HR MIN TEMP:  64; 6HR MAX TEMP:  67;

SEYMOUR +      FOG       64  64 100 CALM      30.04R VSB 1/2

$$




USA.gov is the U.S. government's official web portal to all federal, state and local government web resources and services.